TimeEDT,TemperatureF,Dew PointF,Humidity,Sea Level PressureIn,VisibilityMPH,Wind Direction,Wind SpeedMPH,Gust SpeedMPH,PrecipitationIn,Events,Conditions,WindDirDegrees,DateUTC
12:51 AM,59.0,57.9,96,29.70,6.0,SE,4.6,-,0.01,Rain,Light Rain,130,2012-10-02 04:51:00
1:42 AM,62.6,60.8,94,29.72,2.5,SSE,4.6,-,0.09,Rain,Heavy Rain,160,2012-10-02 05:42:00
1:51 AM,63.0,61.0,93,29.71,3.0,SSE,5.8,-,0.12,Rain,Light Rain,150,2012-10-02 05:51:00
2:51 AM,62.6,60.8,94,29.70,9.0,ESE,4.6,-,N/A,,Overcast,120,2012-10-02 06:51:00
3:51 AM,63.0,61.0,93,29.70,10.0,ESE,6.9,-,0.00,,Overcast,120,2012-10-02 07:51:00
4:51 AM,63.0,62.1,97,29.70,10.0,Variable,3.5,-,0.00,,Overcast,0,2012-10-02 08:51:00
5:51 AM,63.0,62.1,97,29.70,10.0,East,3.5,-,N/A,,Overcast,100,2012-10-02 09:51:00
6:51 AM,64.0,62.1,93,29.71,10.0,ESE,4.6,-,N/A,,Overcast,120,2012-10-02 10:51:00
7:51 AM,64.0,62.1,93,29.73,10.0,Calm,Calm,-,N/A,,Overcast,0,2012-10-02 11:51:00
8:51 AM,64.9,63.0,93,29.75,10.0,ESE,3.5,-,N/A,,Overcast,120,2012-10-02 12:51:00
9:51 AM,70.0,66.0,87,29.75,10.0,SE,5.8,-,N/A,,Partly Cloudy,140,2012-10-02 13:51:00
10:51 AM,73.9,66.0,76,29.74,10.0,Variable,5.8,-,N/A,,Clear,0,2012-10-02 14:51:00
11:51 AM,75.0,66.9,76,29.75,10.0,Variable,3.5,-,N/A,,Mostly Cloudy,0,2012-10-02 15:51:00
12:51 PM,78.1,68.0,71,29.74,10.0,East,5.8,-,N/A,,Mostly Cloudy,100,2012-10-02 16:51:00
1:51 PM,79.0,66.9,66,29.72,10.0,Variable,6.9,-,N/A,,Scattered Clouds,0,2012-10-02 17:51:00
2:51 PM,78.1,66.9,68,29.72,10.0,Calm,Calm,-,N/A,,Mostly Cloudy,0,2012-10-02 18:51:00
3:51 PM,81.0,68.0,65,29.71,10.0,Calm,Calm,-,N/A,,Scattered Clouds,0,2012-10-02 19:51:00
4:51 PM,81.0,66.0,60,29.72,10.0,Calm,Calm,-,N/A,,Partly Cloudy,0,2012-10-02 20:51:00
5:51 PM,82.0,66.9,60,29.74,10.0,WSW,4.6,-,N/A,,Partly Cloudy,250,2012-10-02 21:51:00
6:51 PM,77.0,66.9,71,29.77,10.0,WSW,12.7,18.4,N/A,,Mostly Cloudy,250,2012-10-02 22:51:00
7:51 PM,72.0,66.0,81,29.80,10.0,West,4.6,-,0.00,,Clear,260,2012-10-02 23:51:00
8:51 PM,71.1,63.0,75,29.83,10.0,West,5.8,-,N/A,,Scattered Clouds,260,2012-10-03 00:51:00
9:51 PM,70.0,63.0,78,29.86,10.0,West,3.5,-,N/A,,Overcast,260,2012-10-03 01:51:00
10:51 PM,69.1,63.0,81,29.88,10.0,SW,4.6,-,N/A,,Mostly Cloudy,230,2012-10-03 02:51:00
11:51 PM,68.0,62.1,81,29.90,10.0,WSW,5.8,-,N/A,,Overcast,250,2012-10-03 03:51:00